This demonstration page uses our WeatherBlox Daily Observations layout. Learn more.

Left ArrowRight Arrow

47.50024, -111.30081

Hourly Observations for January 7, 2022

Temp ( °F °C ) Dew Point ( °F °C ) Humidity (%) Winds ( mph kmh ) Pressure ( in mb ) Visibility ( mi km ) Precip ( " mm )
12:53 am 00:53 Mostly Clear 26 -3.3 20 -6.7 78 78 SSW 10 17 29.63 1003 10 16 0.00 0.00
1:53 am 01:53 Clear 33 0.6 25 -3.9 72 72 SSW 20 31 29.56 1001 10 16 0.00 0.00
2:53 am 02:53 Clear 32 0 24 -4.4 73 73 SSW 16 26 29.54 1000 10 16 0.00 0.00
3:53 am 03:53 Clear 39 3.9 28 -2.2 65 65 SSW 23 37 29.50 999 10 16 0.00 0.00
4:53 am 04:53 Clear 39 3.9 28 -2.2 65 65 SSW 23 37 29.48 998 10 16 0.00 0.00
5:53 am 05:53 Clear 40 4.4 28 -2.2 63 63 SSW 17 28 29.44 997 10 16 0.00 0.00
6:53 am 06:53 Clear 39 3.9 27 -2.8 62 62 SW 21 33 29.43 997 10 16 0.00 0.00
7:53 am 07:53 Clear 39 3.9 27 -2.8 62 62 SSW 20 31 29.41 996 10 16 0.00 0.00
8:53 am 08:53 Sunny 41 5 27 -2.8 57 57 SW 24 39 29.38 995 10 16 0.00 0.00
9:53 am 09:53 Sunny 41 5 27 -2.8 57 57 SW 21 33 29.38 995 10 16 0.00 0.00
10:53 am 10:53 Sunny 41 5 28 -2.2 60 60 SW 29 46 29.35 994 10 16 0.00 0.00
11:53 am 11:53 Sunny 41 5 29 -1.7 62 62 SW 23 37 29.33 993 10 16 0.00 0.00
12:53 pm 12:53 Sunny 42 5.6 29 -1.7 60 60 S 20 31 29.27 991 10 16 0.00 0.00
1:53 pm 13:53 Sunny 41 5 30 -1.1 65 65 SSW 20 31 29.23 990 10 16 0.00 0.00
2:53 pm 14:53 Sunny 42 5.6 29 -1.7 60 60 SW 28 44 29.20 989 10 16 0.00 0.00
3:53 pm 15:53 Sunny 40 4.4 28 -2.2 63 63 WSW 16 26 29.19 989 10 16 0.00 0.00
4:53 pm 16:53 Clear 40 4.4 27 -2.8 60 60 WSW 21 33 29.19 989 10 16 0.00 0.00
5:53 pm 17:53 Clear 41 5 28 -2.2 60 60 SW 21 33 29.20 989 10 16 0.00 0.00
6:53 pm 18:53 Clear 40 4.4 27 -2.8 60 60 SW 18 30 29.22 989 10 16 0.00 0.00
7:53 pm 19:53 Clear 39 3.9 27 -2.8 62 62 WSW 24 39 29.25 990 10 16 0.00 0.00
8:53 pm 20:53 Clear 37 2.8 26 -3.3 65 65 WSW 21 33 29.27 991 10 16 0.00 0.00
9:53 pm 21:53 Clear 36 2.2 24 -4.4 62 62 W 21 33 29.33 993 10 16 0.00 0.00
10:53 pm 22:53 Clear 34 1.1 23 -5 64 64 W 17 28 29.39 995 10 16 0.00 0.00
11:53 pm 23:53 Clear 6 -14.4 3 -16.1 87 87 NE 14 22 29.58 1002 10 16 0.00 0.00

Powered by AerisWeather